Location: Bijele Vode
(45.2833°N, 16.2000°E)
Time: 10:28:22
(UTC+00:00)

CZ-2C R/B - Pass Details

Date: 23 January 2021
Orbit: 390 x 584 km, 35.0° (Epoch: 27 February)

Event Time Altitude Azimuth Distance (km) Brightness Sun altitude
Exits shadow 05:26:50 - 240° (WSW) 2,276 4.1 -10.3°
Reaches altitude 10° 05:28:24 10° 228° (SW) 1,786 3.6 -10.0°
Maximum altitude 05:31:18 19° 183° (S) 1,288 3.4 -9.5°
Drops below altitude 10° 05:34:06 10° 138° (SE) 1,702 4.9 -9.1°
Sets 05:36:42 0° 120° (ESE) 2,540 6.8 -8.6°
